This is the latest recevied weather packets stored in our database for station/object K2ATL. If no packets are shown the sender has not sent any weather packets the latest 10 day(s).
| Time | Temp. | Humidity | Pressure | Rain* | Wind** | Luminosity | Snow |
|---|---|---|---|---|---|---|---|
| 1787511745 | 28.33° C | 49% | 1102.2 hPa | 0 mm | - | 884 W/m² | - |
| 1787511443 | 29.44° C | 50% | 1102.2 hPa | 0 mm | - | 891 W/m² | - |
| 1787511143 | 27.78° C | 47% | 1102.3 hPa | 0 mm | - | 895 W/m² | - |
| 1787510843 | 28.33° C | 48% | 1102.4 hPa | 0 mm | - | 902 W/m² | - |
| 1787510538 | 27.78° C | 48% | 1102.3 hPa | 0 mm | - | 909 W/m² | - |
| 1787510233 | 27.78° C | 48% | 1102.4 hPa | 0 mm | - | 908 W/m² | - |
| 1787509929 | 28.33° C | 52% | 1102.4 hPa | 0 mm | - | 908 W/m² | - |
| 1787509624 | 28.33° C | 50% | 1102.5 hPa | 0 mm | - | 909 W/m² | - |
| 1787509322 | 26.67° C | 53% | 1102.6 hPa | 0 mm | - | 908 W/m² | - |
| 1787509021 | 27.22° C | 56% | 1102.7 hPa | 0 mm | - | 909 W/m² | - |
| 1787508718 | 26.11° C | 57% | 1102.6 hPa | 0 mm | - | 908 W/m² | - |
| 1787508418 | 26.67° C | 58% | 1102.7 hPa | 0 mm | - | 908 W/m² | - |
| 1787508115 | 26.67° C | 53% | 1102.8 hPa | 0 mm | - | 908 W/m² | - |
| 1787507810 | 26.11° C | 58% | 1102.5 hPa | 0 mm | - | 908 W/m² | - |
| 1787507506 | 26.67° C | 57% | 1103 hPa | 0 mm | - | 908 W/m² | - |
| 1787507202 | 26.67° C | 57% | 1102.8 hPa | 0 mm | - | 908 W/m² | - |
| 1787506897 | 27.22° C | 55% | 1102.8 hPa | 0 mm | - | 908 W/m² | - |
| 1787506593 | 26.11° C | 57% | 1102.8 hPa | 0 mm | - | 901 W/m² | - |
| 1787506289 | 26.11° C | 57% | 1103.1 hPa | 0 mm | - | 908 W/m² | - |
| 1787505984 | 25.56° C | 68% | 1103 hPa | 0 mm | - | 902 W/m² | - |
| 1787505679 | 25.56° C | 64% | 1102.7 hPa | 0 mm | - | 898 W/m² | - |
| 1787505374 | 25.56° C | 61% | 1103.1 hPa | 0 mm | - | 889 W/m² | - |
| 1787505069 | 25.56° C | 58% | 1103.1 hPa | 0 mm | - | 885 W/m² | - |
| 1787504764 | 24.44° C | 61% | 1103.2 hPa | 0 mm | - | 878 W/m² | - |
| 1787504461 | 25° C | 62% | 1103.1 hPa | 0 mm | - | 870 W/m² | - |
* Rain latest hour (hover to see other rain measurements)
** Current wind speed in m/s (hover to see current wind gust speed)